Time,TemperatureF,DewpointF,PressureIn,WindDirection,WindDirectionDegrees,WindSpeedMPH,WindSpeedGustMPH,Humidity,HourlyPrecipIn,Conditions,Clouds,dailyrainin,SoftwareType,DateUTC
2013-01-18 00:03:00,14.5,-15.7,29.12,North,-999,-999.0,-999.0,24,-99.99,,,-99.99,VWS V14.01,2013-01-18 05:03:00,
2013-01-18 00:04:00,14.5,-15.7,29.12,North,-999,-999.0,-999.0,24,-99.99,,,-99.99,VWS V14.01,2013-01-18 05:04:00,
2013-01-18 00:07:00,14.5,-15.7,29.12,North,-999,-999.0,-999.0,24,-99.99,,,-99.99,VWS V14.01,2013-01-18 05:07:00,
2013-01-18 00:13:00,14.4,-15.8,29.12,North,-999,-999.0,-999.0,24,-99.99,,,-99.99,VWS V14.01,2013-01-18 05:13:00,
2013-01-18 00:19:00,14.4,-15.8,29.12,North,-999,-999.0,-999.0,24,-99.99,,,-99.99,VWS V14.01,2013-01-18 05:19:00,
2013-01-18 00:25:00,14.2,-16.0,29.12,North,-999,-999.0,-999.0,24,-99.99,,,-99.99,VWS V14.01,2013-01-18 05:25:00,
2013-01-18 00:30:00,14.2,-16.0,29.12,North,-999,-999.0,-999.0,24,-99.99,,,-99.99,VWS V14.01,2013-01-18 05:30:00,
2013-01-18 00:36:00,14.2,-14.4,29.12,North,-999,-999.0,-999.0,26,-99.99,,,-99.99,VWS V14.01,2013-01-18 05:36:00,
2013-01-18 00:42:00,14.0,-13.8,29.12,North,-999,-999.0,-999.0,27,-99.99,,,-99.99,VWS V14.01,2013-01-18 05:42:00,
2013-01-18 00:47:00,13.8,-14.0,29.15,North,-999,-999.0,-999.0,27,-99.99,,,-99.99,VWS V14.01,2013-01-18 05:47:00,
2013-01-18 00:52:00,13.8,-14.0,29.15,North,-999,-999.0,-999.0,27,-99.99,,,-99.99,VWS V14.01,2013-01-18 05:52:00,
2013-01-18 00:57:00,13.8,-14.0,29.15,North,-999,-999.0,-999.0,27,-99.99,,,-99.99,VWS V14.01,2013-01-18 05:57:00,
2013-01-18 01:03:00,13.8,-14.0,29.15,North,-999,-999.0,-999.0,27,-99.99,,,-99.99,VWS V14.01,2013-01-18 06:03:00,
2013-01-18 01:08:00,13.8,-14.0,29.15,North,-999,-999.0,-999.0,27,-99.99,,,-99.99,VWS V14.01,2013-01-18 06:08:00,
2013-01-18 01:13:00,14.0,-12.4,29.15,North,-999,-999.0,-999.0,29,-99.99,,,-99.99,VWS V14.01,2013-01-18 06:13:00,
2013-01-18 01:19:00,14.0,-10.4,29.15,North,-999,-999.0,-999.0,32,-99.99,,,-99.99,VWS V14.01,2013-01-18 06:19:00,
2013-01-18 01:24:00,14.2,-10.9,29.15,North,-999,-999.0,-999.0,31,-99.99,,,-99.99,VWS V14.01,2013-01-18 06:24:00,
2013-01-18 01:29:00,14.4,-10.7,29.15,North,-999,-999.0,-999.0,31,-99.99,,,-99.99,VWS V14.01,2013-01-18 06:29:00,
2013-01-18 01:34:00,14.4,-10.7,29.15,North,-999,-999.0,-999.0,31,-99.99,,,-99.99,VWS V14.01,2013-01-18 06:34:00,
2013-01-18 01:39:00,14.4,-10.7,29.15,North,-999,-999.0,-999.0,31,-99.99,,,-99.99,VWS V14.01,2013-01-18 06:39:00,
2013-01-18 01:45:00,14.4,-8.9,29.15,North,-999,-999.0,-999.0,34,-99.99,,,-99.99,VWS V14.01,2013-01-18 06:45:00,
2013-01-18 01:50:00,14.4,-8.9,29.18,North,-999,-999.0,-999.0,34,-99.99,,,-99.99,VWS V14.01,2013-01-18 06:50:00,
2013-01-18 01:55:00,14.5,-8.7,29.18,North,-999,-999.0,-999.0,34,-99.99,,,-99.99,VWS V14.01,2013-01-18 06:55:00,
2013-01-18 02:01:00,14.5,-8.7,29.18,North,-999,-999.0,-999.0,34,-99.99,,,-99.99,VWS V14.01,2013-01-18 07:01:00,
2013-01-18 02:06:00,14.4,-8.9,29.18,North,-999,-999.0,-999.0,34,-99.99,,,-99.99,VWS V14.01,2013-01-18 07:06:00,
2013-01-18 02:12:00,14.4,-8.9,29.18,North,-999,-999.0,-999.0,34,-99.99,,,-99.99,VWS V14.01,2013-01-18 07:12:00,
2013-01-18 02:18:00,14.5,-8.7,29.18,North,-999,-999.0,-999.0,34,-99.99,,,-99.99,VWS V14.01,2013-01-18 07:18:00,
2013-01-18 02:24:00,14.5,-8.7,29.18,North,-999,-999.0,-999.0,34,-99.99,,,-99.99,VWS V14.01,2013-01-18 07:24:00,
2013-01-18 02:29:00,14.5,-8.7,29.18,North,-999,-999.0,-999.0,34,-99.99,,,-99.99,VWS V14.01,2013-01-18 07:29:00,
2013-01-18 02:34:00,14.5,-8.7,29.18,North,-999,-999.0,-999.0,34,-99.99,,,-99.99,VWS V14.01,2013-01-18 07:34:00,
2013-01-18 02:39:00,14.5,-8.7,29.18,North,-999,-999.0,-999.0,34,-99.99,,,-99.99,VWS V14.01,2013-01-18 07:39:00,
2013-01-18 02:45:00,14.7,-8.6,29.18,North,-999,-999.0,-999.0,34,-99.99,,,-99.99,VWS V14.01,2013-01-18 07:45:00,
2013-01-18 02:51:00,14.7,-8.6,29.18,North,-999,-999.0,-999.0,34,-99.99,,,-99.99,VWS V14.01,2013-01-18 07:51:00,
2013-01-18 02:56:00,14.9,-8.4,29.18,North,-999,-999.0,-999.0,34,-99.99,,,-99.99,VWS V14.01,2013-01-18 07:56:00,
2013-01-18 03:02:00,14.9,-8.4,29.21,North,-999,-999.0,-999.0,34,-99.99,,,-99.99,VWS V14.01,2013-01-18 08:02:00,
2013-01-18 03:07:00,14.9,-8.4,29.21,North,-999,-999.0,-999.0,34,-99.99,,,-99.99,VWS V14.01,2013-01-18 08:07:00,
2013-01-18 03:13:00,14.9,-8.4,29.21,North,-999,-999.0,-999.0,34,-99.99,,,-99.99,VWS V14.01,2013-01-18 08:13:00,
2013-01-18 03:18:00,14.9,-8.4,29.21,North,-999,-999.0,-999.0,34,-99.99,,,-99.99,VWS V14.01,2013-01-18 08:18:00,
2013-01-18 03:23:00,14.7,-8.6,29.21,North,-999,-999.0,-999.0,34,-99.99,,,-99.99,VWS V14.01,2013-01-18 08:23:00,
2013-01-18 03:28:00,14.5,-8.7,29.21,North,-999,-999.0,-999.0,34,-99.99,,,-99.99,VWS V14.01,2013-01-18 08:28:00,
2013-01-18 03:33:00,14.5,-8.7,29.21,North,-999,-999.0,-999.0,34,-99.99,,,-99.99,VWS V14.01,2013-01-18 08:33:00,
2013-01-18 03:38:00,14.5,-8.7,29.21,North,-999,-999.0,-999.0,34,-99.99,,,-99.99,VWS V14.01,2013-01-18 08:38:00,
2013-01-18 03:43:00,14.9,-8.4,29.21,North,-999,-999.0,-999.0,34,-99.99,,,-99.99,VWS V14.01,2013-01-18 08:43:00,
2013-01-18 03:48:00,14.9,-7.8,29.21,North,-999,-999.0,-999.0,35,-99.99,,,-99.99,VWS V14.01,2013-01-18 08:48:00,
2013-01-18 03:53:00,15.1,-7.6,29.21,North,-999,-999.0,-999.0,35,-99.99,,,-99.99,VWS V14.01,2013-01-18 08:53:00,
2013-01-18 03:59:00,15.3,-7.5,29.21,North,-999,-999.0,-999.0,35,-99.99,,,-99.99,VWS V14.01,2013-01-18 08:59:00,
2013-01-18 04:05:00,15.3,-7.5,29.21,North,-999,-999.0,-999.0,35,-99.99,,,-99.99,VWS V14.01,2013-01-18 09:05:00,
2013-01-18 04:11:00,15.3,-7.5,29.21,North,-999,-999.0,-999.0,35,-99.99,,,-99.99,VWS V14.01,2013-01-18 09:11:00,
2013-01-18 04:16:00,15.3,-7.5,29.21,North,-999,-999.0,-999.0,35,-99.99,,,-99.99,VWS V14.01,2013-01-18 09:16:00,
2013-01-18 04:21:00,15.3,-7.5,29.21,North,-999,-999.0,-999.0,35,-99.99,,,-99.99,VWS V14.01,2013-01-18 09:21:00,
2013-01-18 04:26:00,15.1,-7.6,29.21,North,-999,-999.0,-999.0,35,-99.99,,,-99.99,VWS V14.01,2013-01-18 09:26:00,
2013-01-18 04:31:00,14.9,-7.8,29.21,North,-999,-999.0,-999.0,35,-99.99,,,-99.99,VWS V14.01,2013-01-18 09:31:00,
2013-01-18 04:37:00,14.5,-8.1,29.21,North,-999,-999.0,-999.0,35,-99.99,,,-99.99,VWS V14.01,2013-01-18 09:37:00,
2013-01-18 04:42:00,14.4,-8.3,29.21,North,-999,-999.0,-999.0,35,-99.99,,,-99.99,VWS V14.01,2013-01-18 09:42:00,
2013-01-18 04:47:00,14.5,-7.5,29.21,North,-999,-999.0,-999.0,36,-99.99,,,-99.99,VWS V14.01,2013-01-18 09:47:00,
2013-01-18 04:53:00,14.5,-7.5,29.21,North,-999,-999.0,-999.0,36,-99.99,,,-99.99,VWS V14.01,2013-01-18 09:53:00,
2013-01-18 04:58:00,14.5,-7.5,29.21,North,-999,-999.0,-999.0,36,-99.99,,,-99.99,VWS V14.01,2013-01-18 09:58:00,
2013-01-18 05:03:00,14.4,-7.7,29.21,North,-999,-999.0,-999.0,36,-99.99,,,-99.99,VWS V14.01,2013-01-18 10:03:00,
2013-01-18 05:08:00,14.2,-7.9,29.21,North,-999,-999.0,-999.0,36,-99.99,,,-99.99,VWS V14.01,2013-01-18 10:08:00,
2013-01-18 05:14:00,13.8,-8.2,29.21,North,-999,-999.0,-999.0,36,-99.99,,,-99.99,VWS V14.01,2013-01-18 10:14:00,
2013-01-18 05:19:00,13.6,-8.4,29.21,North,-999,-999.0,-999.0,36,-99.99,,,-99.99,VWS V14.01,2013-01-18 10:19:00,
2013-01-18 05:25:00,13.5,-8.5,29.21,North,-999,-999.0,-999.0,36,-99.99,,,-99.99,VWS V14.01,2013-01-18 10:25:00,
2013-01-18 05:31:00,13.5,-8.5,29.21,North,-999,-999.0,-999.0,36,-99.99,,,-99.99,VWS V14.01,2013-01-18 10:31:00,
2013-01-18 05:36:00,13.3,-8.7,29.21,North,-999,-999.0,-999.0,36,-99.99,,,-99.99,VWS V14.01,2013-01-18 10:36:00,
2013-01-18 05:41:00,12.9,-9.0,29.21,North,-999,-999.0,-999.0,36,-99.99,,,-99.99,VWS V14.01,2013-01-18 10:41:00,
2013-01-18 05:47:00,12.7,-9.2,29.21,North,-999,-999.0,-999.0,36,-99.99,,,-99.99,VWS V14.01,2013-01-18 10:47:00,
2013-01-18 05:53:00,12.6,-9.3,29.21,North,-999,-999.0,-999.0,36,-99.99,,,-99.99,VWS V14.01,2013-01-18 10:53:00,
2013-01-18 05:58:00,12.4,-9.5,29.21,North,-999,-999.0,-999.0,36,-99.99,,,-99.99,VWS V14.01,2013-01-18 10:58:00,
2013-01-18 06:04:00,12.2,-9.6,29.21,North,-999,-999.0,-999.0,36,-99.99,,,-99.99,VWS V14.01,2013-01-18 11:04:00,
2013-01-18 06:09:00,12.0,-9.8,29.21,North,-999,-999.0,-999.0,36,-99.99,,,-99.99,VWS V14.01,2013-01-18 11:09:00,
2013-01-18 06:14:00,11.8,-10.0,29.21,North,-999,-999.0,-999.0,36,-99.99,,,-99.99,VWS V14.01,2013-01-18 11:14:00,
2013-01-18 06:20:00,11.8,-10.0,29.21,North,-999,-999.0,-999.0,36,-99.99,,,-99.99,VWS V14.01,2013-01-18 11:20:00,
2013-01-18 06:25:00,11.8,-10.0,29.21,North,-999,-999.0,-999.0,36,-99.99,,,-99.99,VWS V14.01,2013-01-18 11:25:00,
2013-01-18 06:31:00,11.7,-10.1,29.21,North,-999,-999.0,-999.0,36,-99.99,,,-99.99,VWS V14.01,2013-01-18 11:31:00,
2013-01-18 06:37:00,11.3,-10.4,29.21,North,-999,-999.0,-999.0,36,-99.99,,,-99.99,VWS V14.01,2013-01-18 11:37:00,
2013-01-18 06:43:00,11.3,-10.4,29.21,North,-999,-999.0,-999.0,36,-99.99,,,-99.99,VWS V14.01,2013-01-18 11:43:00,
2013-01-18 06:48:00,11.3,-10.4,29.21,North,-999,-999.0,-999.0,36,-99.99,,,-99.99,VWS V14.01,2013-01-18 11:48:00,
2013-01-18 06:53:00,11.3,-10.4,29.21,North,-999,-999.0,-999.0,36,-99.99,,,-99.99,VWS V14.01,2013-01-18 11:53:00,
2013-01-18 06:58:00,11.7,-10.1,29.21,North,-999,-999.0,-999.0,36,-99.99,,,-99.99,VWS V14.01,2013-01-18 11:58:00,
2013-01-18 07:03:00,11.8,-10.0,29.21,North,-999,-999.0,-999.0,36,-99.99,,,-99.99,VWS V14.01,2013-01-18 12:03:00,
2013-01-18 07:09:00,12.0,-9.8,29.21,North,-999,-999.0,-999.0,36,-99.99,,,-99.99,VWS V14.01,2013-01-18 12:09:00,
2013-01-18 07:14:00,12.0,-9.8,29.21,North,-999,-999.0,-999.0,36,-99.99,,,-99.99,VWS V14.01,2013-01-18 12:14:00,
2013-01-18 07:20:00,12.0,-9.8,29.21,North,-999,-999.0,-999.0,36,-99.99,,,-99.99,VWS V14.01,2013-01-18 12:20:00,
2013-01-18 07:25:00,12.0,-9.8,29.21,North,-999,-999.0,-999.0,36,-99.99,,,-99.99,VWS V14.01,2013-01-18 12:25:00,
2013-01-18 07:30:00,12.0,-9.8,29.21,North,-999,-999.0,-999.0,36,-99.99,,,-99.99,VWS V14.01,2013-01-18 12:30:00,
2013-01-18 07:35:00,11.8,-10.0,29.21,North,-999,-999.0,-999.0,36,-99.99,,,-99.99,VWS V14.01,2013-01-18 12:35:00,
2013-01-18 07:41:00,11.7,-10.1,29.21,North,-999,-999.0,-999.0,36,-99.99,,,-99.99,VWS V14.01,2013-01-18 12:41:00,
2013-01-18 07:47:00,11.5,-10.3,29.21,North,-999,-999.0,-999.0,36,-99.99,,,-99.99,VWS V14.01,2013-01-18 12:47:00,
2013-01-18 07:52:00,11.5,-10.3,29.21,North,-999,-999.0,-999.0,36,-99.99,,,-99.99,VWS V14.01,2013-01-18 12:52:00,
2013-01-18 07:58:00,11.7,-10.1,29.21,North,-999,-999.0,-999.0,36,-99.99,,,-99.99,VWS V14.01,2013-01-18 12:58:00,
2013-01-18 08:03:00,11.7,-10.1,29.21,North,-999,-999.0,-999.0,36,-99.99,,,-99.99,VWS V14.01,2013-01-18 13:03:00,
2013-01-18 08:08:00,11.7,-10.1,29.21,North,-999,-999.0,-999.0,36,-99.99,,,-99.99,VWS V14.01,2013-01-18 13:08:00,
2013-01-18 08:14:00,11.7,-10.1,29.21,North,-999,-999.0,-999.0,36,-99.99,,,-99.99,VWS V14.01,2013-01-18 13:14:00,
2013-01-18 08:19:00,11.8,-10.0,29.21,North,-999,-999.0,-999.0,36,-99.99,,,-99.99,VWS V14.01,2013-01-18 13:19:00,
2013-01-18 08:24:00,12.0,-9.8,29.21,North,-999,-999.0,-999.0,36,-99.99,,,-99.99,VWS V14.01,2013-01-18 13:24:00,
2013-01-18 08:29:00,12.2,-9.6,29.21,North,-999,-999.0,-999.0,36,-99.99,,,-99.99,VWS V14.01,2013-01-18 13:29:00,
2013-01-18 08:34:00,12.6,-9.3,29.21,North,-999,-999.0,-999.0,36,-99.99,,,-99.99,VWS V14.01,2013-01-18 13:34:00,
2013-01-18 08:39:00,12.7,-9.2,29.21,North,-999,-999.0,-999.0,36,-99.99,,,-99.99,VWS V14.01,2013-01-18 13:39:00,
2013-01-18 08:44:00,12.9,-9.0,29.21,North,-999,-999.0,-999.0,36,-99.99,,,-99.99,VWS V14.01,2013-01-18 13:44:00,
2013-01-18 08:49:00,13.3,-8.7,29.21,North,-999,-999.0,-999.0,36,-99.99,,,-99.99,VWS V14.01,2013-01-18 13:49:00,
2013-01-18 08:54:00,13.8,-8.2,29.21,North,-999,-999.0,-999.0,36,-99.99,,,-99.99,VWS V14.01,2013-01-18 13:54:00,
2013-01-18 09:00:00,14.5,-2.0,29.21,North,-999,-999.0,-999.0,47,-99.99,,,-99.99,VWS V14.01,2013-01-18 14:00:00,
2013-01-18 09:05:00,14.9,-1.7,29.21,North,-999,-999.0,-999.0,47,-99.99,,,-99.99,VWS V14.01,2013-01-18 14:05:00,
2013-01-18 09:10:00,15.3,-0.9,29.21,North,-999,-999.0,-999.0,48,-99.99,,,-99.99,VWS V14.01,2013-01-18 14:10:00,
2013-01-18 09:15:00,15.8,-0.4,29.21,North,-999,-999.0,-999.0,48,-99.99,,,-99.99,VWS V14.01,2013-01-18 14:15:00,
2013-01-18 09:21:00,16.0,-0.7,29.21,North,-999,-999.0,-999.0,47,-99.99,,,-99.99,VWS V14.01,2013-01-18 14:21:00,
2013-01-18 09:26:00,16.3,-0.3,29.21,North,-999,-999.0,-999.0,47,-99.99,,,-99.99,VWS V14.01,2013-01-18 14:26:00,
2013-01-18 09:31:00,16.7,0.0,29.21,North,-999,-999.0,-999.0,47,-99.99,,,-99.99,VWS V14.01,2013-01-18 14:31:00,
2013-01-18 09:36:00,16.9,0.2,29.21,North,-999,-999.0,-999.0,47,-99.99,,,-99.99,VWS V14.01,2013-01-18 14:36:00,
2013-01-18 09:42:00,17.2,0.0,29.21,North,-999,-999.0,-999.0,46,-99.99,,,-99.99,VWS V14.01,2013-01-18 14:42:00,
2013-01-18 09:47:00,17.4,-0.3,29.21,North,-999,-999.0,-999.0,45,-99.99,,,-99.99,VWS V14.01,2013-01-18 14:47:00,
2013-01-18 09:53:00,17.8,-0.4,29.21,North,-999,-999.0,-999.0,44,-99.99,,,-99.99,VWS V14.01,2013-01-18 14:53:00,
2013-01-18 09:58:00,18.1,-0.6,29.21,North,-999,-999.0,-999.0,43,-99.99,,,-99.99,VWS V14.01,2013-01-18 14:58:00,
2013-01-18 10:03:00,18.5,-0.3,29.21,North,-999,-999.0,-999.0,43,-99.99,,,-99.99,VWS V14.01,2013-01-18 15:03:00,
2013-01-18 10:09:00,18.7,-1.1,29.21,North,-999,-999.0,-999.0,41,-99.99,,,-99.99,VWS V14.01,2013-01-18 15:09:00,
2013-01-18 10:14:00,19.2,-1.1,29.21,North,-999,-999.0,-999.0,40,-99.99,,,-99.99,VWS V14.01,2013-01-18 15:14:00,
2013-01-18 10:20:00,19.4,-3.2,29.21,North,-999,-999.0,-999.0,36,-99.99,,,-99.99,VWS V14.01,2013-01-18 15:20:00,
2013-01-18 10:25:00,19.9,-3.3,29.21,North,-999,-999.0,-999.0,35,-99.99,,,-99.99,VWS V14.01,2013-01-18 15:25:00,
2013-01-18 10:30:00,20.3,-4.2,29.21,North,-999,-999.0,-999.0,33,-99.99,,,-99.99,VWS V14.01,2013-01-18 15:30:00,
2013-01-18 10:35:00,20.7,-3.9,29.21,North,-999,-999.0,-999.0,33,-99.99,,,-99.99,VWS V14.01,2013-01-18 15:35:00,
2013-01-18 10:40:00,20.8,-4.4,29.21,North,-999,-999.0,-999.0,32,-99.99,,,-99.99,VWS V14.01,2013-01-18 15:40:00,
2013-01-18 10:45:00,21.2,-5.4,29.21,North,-999,-999.0,-999.0,30,-99.99,,,-99.99,VWS V14.01,2013-01-18 15:45:00,
2013-01-18 10:51:00,21.4,-5.2,29.21,North,-999,-999.0,-999.0,30,-99.99,,,-99.99,VWS V14.01,2013-01-18 15:51:00,
2013-01-18 10:56:00,21.9,-4.8,29.21,North,-999,-999.0,-999.0,30,-99.99,,,-99.99,VWS V14.01,2013-01-18 15:56:00,
2013-01-18 11:01:00,22.1,-6.8,29.21,North,-999,-999.0,-999.0,27,-99.99,,,-99.99,VWS V14.01,2013-01-18 16:01:00,
2013-01-18 11:06:00,22.6,-6.3,29.21,North,-999,-999.0,-999.0,27,-99.99,,,-99.99,VWS V14.01,2013-01-18 16:06:00,
2013-01-18 11:11:00,22.8,-6.1,29.21,North,-999,-999.0,-999.0,27,-99.99,,,-99.99,VWS V14.01,2013-01-18 16:11:00,
2013-01-18 11:17:00,23.0,-7.6,29.18,North,-999,-999.0,-999.0,25,-99.99,,,-99.99,VWS V14.01,2013-01-18 16:17:00,
2013-01-18 11:22:00,23.0,-7.6,29.18,North,-999,-999.0,-999.0,25,-99.99,,,-99.99,VWS V14.01,2013-01-18 16:22:00,
2013-01-18 11:27:00,23.0,-7.6,29.18,North,-999,-999.0,-999.0,25,-99.99,,,-99.99,VWS V14.01,2013-01-18 16:27:00,
2013-01-18 11:33:00,23.4,-8.1,29.18,North,-999,-999.0,-999.0,24,-99.99,,,-99.99,VWS V14.01,2013-01-18 16:33:00,
2013-01-18 11:38:00,23.5,-7.9,29.18,North,-999,-999.0,-999.0,24,-99.99,,,-99.99,VWS V14.01,2013-01-18 16:38:00,
2013-01-18 11:44:00,23.5,-7.9,29.18,North,-999,-999.0,-999.0,24,-99.99,,,-99.99,VWS V14.01,2013-01-18 16:44:00,
2013-01-18 11:49:00,23.7,-7.8,29.18,North,-999,-999.0,-999.0,24,-99.99,,,-99.99,VWS V14.01,2013-01-18 16:49:00,
2013-01-18 11:54:00,24.1,-7.5,29.18,North,-999,-999.0,-999.0,24,-99.99,,,-99.99,VWS V14.01,2013-01-18 16:54:00,
2013-01-18 11:59:00,24.4,-7.2,29.18,North,-999,-999.0,-999.0,24,-99.99,,,-99.99,VWS V14.01,2013-01-18 16:59:00,
2013-01-18 12:04:00,24.6,-7.0,29.15,North,-999,-999.0,-999.0,24,-99.99,,,-99.99,VWS V14.01,2013-01-18 17:04:00,
2013-01-18 12:10:00,24.6,-7.0,29.15,North,-999,-999.0,-999.0,24,-99.99,,,-99.99,VWS V14.01,2013-01-18 17:10:00,
2013-01-18 12:15:00,25.2,-6.6,29.15,North,-999,-999.0,-999.0,24,-99.99,,,-99.99,VWS V14.01,2013-01-18 17:15:00,
2013-01-18 12:21:00,25.9,-5.9,29.15,North,-999,-999.0,-999.0,24,-99.99,,,-99.99,VWS V14.01,2013-01-18 17:21:00,
2013-01-18 12:26:00,25.9,-5.9,29.15,North,-999,-999.0,-999.0,24,-99.99,,,-99.99,VWS V14.01,2013-01-18 17:26:00,
2013-01-18 12:31:00,25.3,-6.4,29.12,North,-999,-999.0,-999.0,24,-99.99,,,-99.99,VWS V14.01,2013-01-18 17:31:00,
2013-01-18 12:37:00,24.8,-6.9,29.12,North,-999,-999.0,-999.0,24,-99.99,,,-99.99,VWS V14.01,2013-01-18 17:37:00,
2013-01-18 12:42:00,24.8,-6.9,29.12,North,-999,-999.0,-999.0,24,-99.99,,,-99.99,VWS V14.01,2013-01-18 17:42:00,
2013-01-18 12:47:00,25.0,-6.7,29.12,North,-999,-999.0,-999.0,24,-99.99,,,-99.99,VWS V14.01,2013-01-18 17:47:00,
2013-01-18 12:52:00,24.8,-4.4,29.12,North,-999,-999.0,-999.0,27,-99.99,,,-99.99,VWS V14.01,2013-01-18 17:52:00,
2013-01-18 12:57:00,24.8,-0.9,29.12,North,-999,-999.0,-999.0,32,-99.99,,,-99.99,VWS V14.01,2013-01-18 17:57:00,
2013-01-18 13:03:00,24.4,-0.5,29.09,North,-999,-999.0,-999.0,33,-99.99,,,-99.99,VWS V14.01,2013-01-18 18:03:00,
2013-01-18 13:08:00,24.4,0.1,29.09,North,-999,-999.0,-999.0,34,-99.99,,,-99.99,VWS V14.01,2013-01-18 18:08:00,
2013-01-18 13:13:00,24.4,0.7,29.09,North,-999,-999.0,-999.0,35,-99.99,,,-99.99,VWS V14.01,2013-01-18 18:13:00,
2013-01-18 13:19:00,24.6,1.5,29.09,North,-999,-999.0,-999.0,36,-99.99,,,-99.99,VWS V14.01,2013-01-18 18:19:00,
2013-01-18 13:24:00,25.0,1.8,29.09,North,-999,-999.0,-999.0,36,-99.99,,,-99.99,VWS V14.01,2013-01-18 18:24:00,
2013-01-18 13:30:00,25.3,0.9,29.09,North,-999,-999.0,-999.0,34,-99.99,,,-99.99,VWS V14.01,2013-01-18 18:30:00,
2013-01-18 13:35:00,26.1,1.5,29.06,North,-999,-999.0,-999.0,34,-99.99,,,-99.99,VWS V14.01,2013-01-18 18:35:00,
2013-01-18 13:40:00,26.4,0.6,29.06,North,-999,-999.0,-999.0,32,-99.99,,,-99.99,VWS V14.01,2013-01-18 18:40:00,
2013-01-18 13:46:00,27.0,0.4,29.03,North,-999,-999.0,-999.0,31,-99.99,,,-99.99,VWS V14.01,2013-01-18 18:46:00,
2013-01-18 13:52:00,27.9,-1.0,29.03,North,-999,-999.0,-999.0,28,-99.99,,,-99.99,VWS V14.01,2013-01-18 18:52:00,
2013-01-18 13:57:00,28.6,-2.8,29.03,North,-999,-999.0,-999.0,25,-99.99,,,-99.99,VWS V14.01,2013-01-18 18:57:00,
2013-01-18 14:02:00,28.8,-4.3,29.03,North,-999,-999.0,-999.0,23,-99.99,,,-99.99,VWS V14.01,2013-01-18 19:02:00,
2013-01-18 14:07:00,28.9,-7.1,29.03,North,-999,-999.0,-999.0,20,-99.99,,,-99.99,VWS V14.01,2013-01-18 19:07:00,
2013-01-18 14:12:00,29.3,-6.8,29.03,North,-999,-999.0,-999.0,20,-99.99,,,-99.99,VWS V14.01,2013-01-18 19:12:00,
2013-01-18 14:18:00,29.5,-6.6,29.00,North,-999,-999.0,-999.0,20,-99.99,,,-99.99,VWS V14.01,2013-01-18 19:18:00,
2013-01-18 14:23:00,29.7,-6.5,29.00,North,-999,-999.0,-999.0,20,-99.99,,,-99.99,VWS V14.01,2013-01-18 19:23:00,
2013-01-18 14:28:00,29.8,-6.3,29.00,North,-999,-999.0,-999.0,20,-99.99,,,-99.99,VWS V14.01,2013-01-18 19:28:00,
2013-01-18 14:34:00,30.2,-6.0,29.00,North,-999,-999.0,-999.0,20,-99.99,,,-99.99,VWS V14.01,2013-01-18 19:34:00,
2013-01-18 14:39:00,30.6,-5.7,29.00,North,-999,-999.0,-999.0,20,-99.99,,,-99.99,VWS V14.01,2013-01-18 19:39:00,
2013-01-18 14:44:00,30.7,-5.6,29.00,North,-999,-999.0,-999.0,20,-99.99,,,-99.99,VWS V14.01,2013-01-18 19:44:00,
2013-01-18 14:49:00,30.7,-5.6,28.97,North,-999,-999.0,-999.0,20,-99.99,,,-99.99,VWS V14.01,2013-01-18 19:49:00,
2013-01-18 14:55:00,30.9,-5.4,28.97,North,-999,-999.0,-999.0,20,-99.99,,,-99.99,VWS V14.01,2013-01-18 19:55:00,
2013-01-18 15:01:00,31.1,-5.3,28.97,North,-999,-999.0,-999.0,20,-99.99,,,-99.99,VWS V14.01,2013-01-18 20:01:00,
2013-01-18 15:07:00,31.3,-5.1,28.97,North,-999,-999.0,-999.0,20,-99.99,,,-99.99,VWS V14.01,2013-01-18 20:07:00,
2013-01-18 15:12:00,31.1,-5.3,28.97,North,-999,-999.0,-999.0,20,-99.99,,,-99.99,VWS V14.01,2013-01-18 20:12:00,
2013-01-18 15:18:00,31.1,-5.3,28.94,North,-999,-999.0,-999.0,20,-99.99,,,-99.99,VWS V14.01,2013-01-18 20:18:00,
2013-01-18 15:23:00,31.1,-5.3,28.94,North,-999,-999.0,-999.0,20,-99.99,,,-99.99,VWS V14.01,2013-01-18 20:23:00,
2013-01-18 15:28:00,31.1,-5.3,28.94,North,-999,-999.0,-999.0,20,-99.99,,,-99.99,VWS V14.01,2013-01-18 20:28:00,
2013-01-18 15:34:00,31.5,-5.0,28.94,North,-999,-999.0,-999.0,20,-99.99,,,-99.99,VWS V14.01,2013-01-18 20:34:00,
2013-01-18 15:39:00,31.8,-4.7,28.94,North,-999,-999.0,-999.0,20,-99.99,,,-99.99,VWS V14.01,2013-01-18 20:39:00,
2013-01-18 15:44:00,31.6,-4.8,28.94,North,-999,-999.0,-999.0,20,-99.99,,,-99.99,VWS V14.01,2013-01-18 20:44:00,
2013-01-18 15:49:00,31.6,-4.8,28.94,North,-999,-999.0,-999.0,20,-99.99,,,-99.99,VWS V14.01,2013-01-18 20:49:00,
2013-01-18 15:54:00,31.6,-4.8,28.94,North,-999,-999.0,-999.0,20,-99.99,,,-99.99,VWS V14.01,2013-01-18 20:54:00,
2013-01-18 15:59:00,32.0,-4.5,28.94,North,-999,-999.0,-999.0,20,-99.99,,,-99.99,VWS V14.01,2013-01-18 20:59:00,
2013-01-18 16:05:00,32.4,-4.2,28.94,North,-999,-999.0,-999.0,20,-99.99,,,-99.99,VWS V14.01,2013-01-18 21:05:00,
2013-01-18 16:10:00,32.2,-4.4,28.94,North,-999,-999.0,-999.0,20,-99.99,,,-99.99,VWS V14.01,2013-01-18 21:10:00,
2013-01-18 16:15:00,31.8,-4.7,28.94,North,-999,-999.0,-999.0,20,-99.99,,,-99.99,VWS V14.01,2013-01-18 21:15:00,
2013-01-18 16:20:00,31.6,-4.8,28.91,North,-999,-999.0,-999.0,20,-99.99,,,-99.99,VWS V14.01,2013-01-18 21:20:00,
2013-01-18 16:26:00,31.5,-5.0,28.91,North,-999,-999.0,-999.0,20,-99.99,,,-99.99,VWS V14.01,2013-01-18 21:26:00,
2013-01-18 16:32:00,31.3,-5.1,28.91,North,-999,-999.0,-999.0,20,-99.99,,,-99.99,VWS V14.01,2013-01-18 21:32:00,
2013-01-18 16:37:00,31.1,-5.3,28.91,North,-999,-999.0,-999.0,20,-99.99,,,-99.99,VWS V14.01,2013-01-18 21:37:00,
2013-01-18 16:43:00,31.1,-5.3,28.91,North,-999,-999.0,-999.0,20,-99.99,,,-99.99,VWS V14.01,2013-01-18 21:43:00,
2013-01-18 16:48:00,31.1,-5.3,28.91,North,-999,-999.0,-999.0,20,-99.99,,,-99.99,VWS V14.01,2013-01-18 21:48:00,
2013-01-18 16:53:00,30.9,-5.4,28.91,North,-999,-999.0,-999.0,20,-99.99,,,-99.99,VWS V14.01,2013-01-18 21:53:00,
2013-01-18 16:58:00,30.9,-5.4,28.91,North,-999,-999.0,-999.0,20,-99.99,,,-99.99,VWS V14.01,2013-01-18 21:58:00,
2013-01-18 17:04:00,30.9,-5.4,28.88,North,-999,-999.0,-999.0,20,-99.99,,,-99.99,VWS V14.01,2013-01-18 22:04:00,
2013-01-18 17:10:00,30.7,-5.6,28.88,North,-999,-999.0,-999.0,20,-99.99,,,-99.99,VWS V14.01,2013-01-18 22:10:00,
2013-01-18 17:15:00,30.7,-5.6,28.88,North,-999,-999.0,-999.0,20,-99.99,,,-99.99,VWS V14.01,2013-01-18 22:15:00,
2013-01-18 17:20:00,30.7,-5.6,28.91,North,-999,-999.0,-999.0,20,-99.99,,,-99.99,VWS V14.01,2013-01-18 22:20:00,
2013-01-18 17:26:00,30.7,-5.6,28.91,North,-999,-999.0,-999.0,20,-99.99,,,-99.99,VWS V14.01,2013-01-18 22:26:00,
2013-01-18 17:31:00,30.7,-5.6,28.88,North,-999,-999.0,-999.0,20,-99.99,,,-99.99,VWS V14.01,2013-01-18 22:31:00,
2013-01-18 17:37:00,30.7,-5.6,28.88,North,-999,-999.0,-999.0,20,-99.99,,,-99.99,VWS V14.01,2013-01-18 22:37:00,
2013-01-18 17:43:00,30.7,-5.6,28.88,North,-999,-999.0,-999.0,20,-99.99,,,-99.99,VWS V14.01,2013-01-18 22:43:00,
2013-01-18 17:48:00,30.6,-5.7,28.88,North,-999,-999.0,-999.0,20,-99.99,,,-99.99,VWS V14.01,2013-01-18 22:48:00,
2013-01-18 17:53:00,30.6,-5.7,28.88,North,-999,-999.0,-999.0,20,-99.99,,,-99.99,VWS V14.01,2013-01-18 22:53:00,
2013-01-18 17:58:00,30.7,-2.7,28.88,North,-999,-999.0,-999.0,23,-99.99,,,-99.99,VWS V14.01,2013-01-18 22:58:00,
2013-01-18 18:04:00,30.7,-2.7,28.88,North,-999,-999.0,-999.0,23,-99.99,,,-99.99,VWS V14.01,2013-01-18 23:04:00,
2013-01-18 18:09:00,30.7,-2.7,28.88,North,-999,-999.0,-999.0,23,-99.99,,,-99.99,VWS V14.01,2013-01-18 23:09:00,
2013-01-18 18:14:00,30.7,-2.7,28.88,North,-999,-999.0,-999.0,23,-99.99,,,-99.99,VWS V14.01,2013-01-18 23:14:00,
2013-01-18 18:20:00,30.9,-2.5,28.88,North,-999,-999.0,-999.0,23,-99.99,,,-99.99,VWS V14.01,2013-01-18 23:20:00,
2013-01-18 18:26:00,30.9,-2.5,28.88,North,-999,-999.0,-999.0,23,-99.99,,,-99.99,VWS V14.01,2013-01-18 23:26:00,
2013-01-18 18:31:00,30.9,-2.5,28.85,North,-999,-999.0,-999.0,23,-99.99,,,-99.99,VWS V14.01,2013-01-18 23:31:00,
2013-01-18 18:37:00,30.9,-2.5,28.85,North,-999,-999.0,-999.0,23,-99.99,,,-99.99,VWS V14.01,2013-01-18 23:37:00,
2013-01-18 18:42:00,31.1,-2.4,28.85,North,-999,-999.0,-999.0,23,-99.99,,,-99.99,VWS V14.01,2013-01-18 23:42:00,
2013-01-18 18:47:00,31.1,-2.4,28.85,North,-999,-999.0,-999.0,23,-99.99,,,-99.99,VWS V14.01,2013-01-18 23:47:00,
2013-01-18 18:53:00,31.3,-2.2,28.85,North,-999,-999.0,-999.0,23,-99.99,,,-99.99,VWS V14.01,2013-01-18 23:53:00,
2013-01-18 18:59:00,31.3,-2.2,28.85,North,-999,-999.0,-999.0,23,-99.99,,,-99.99,VWS V14.01,2013-01-18 23:59:00,
2013-01-18 19:04:00,31.5,-2.0,28.85,North,-999,-999.0,-999.0,23,-99.99,,,-99.99,VWS V14.01,2013-01-19 00:04:00,
2013-01-18 19:10:00,31.8,-1.8,28.85,North,-999,-999.0,-999.0,23,-99.99,,,-99.99,VWS V14.01,2013-01-19 00:10:00,
2013-01-18 19:15:00,31.8,-1.8,28.85,North,-999,-999.0,-999.0,23,-99.99,,,-99.99,VWS V14.01,2013-01-19 00:15:00,
2013-01-18 19:20:00,31.8,-4.7,28.85,North,-999,-999.0,-999.0,20,-99.99,,,-99.99,VWS V14.01,2013-01-19 00:20:00,
2013-01-18 19:26:00,32.2,-4.4,28.85,North,-999,-999.0,-999.0,20,-99.99,,,-99.99,VWS V14.01,2013-01-19 00:26:00,
2013-01-18 19:31:00,32.2,-4.4,28.82,North,-999,-999.0,-999.0,20,-99.99,,,-99.99,VWS V14.01,2013-01-19 00:31:00,
2013-01-18 19:36:00,32.2,-4.4,28.82,North,-999,-999.0,-999.0,20,-99.99,,,-99.99,VWS V14.01,2013-01-19 00:36:00,
2013-01-18 19:42:00,32.2,-4.4,28.82,North,-999,-999.0,-999.0,20,-99.99,,,-99.99,VWS V14.01,2013-01-19 00:42:00,
2013-01-18 19:48:00,32.2,-4.4,28.82,North,-999,-999.0,-999.0,20,-99.99,,,-99.99,VWS V14.01,2013-01-19 00:48:00,
2013-01-18 19:53:00,32.4,-4.2,28.82,North,-999,-999.0,-999.0,20,-99.99,,,-99.99,VWS V14.01,2013-01-19 00:53:00,
2013-01-18 19:58:00,32.4,-4.2,28.82,North,-999,-999.0,-999.0,20,-99.99,,,-99.99,VWS V14.01,2013-01-19 00:58:00,
2013-01-18 20:03:00,32.4,-4.2,28.82,North,-999,-999.0,-999.0,20,-99.99,,,-99.99,VWS V14.01,2013-01-19 01:03:00,
2013-01-18 20:09:00,32.5,-4.1,28.82,North,-999,-999.0,-999.0,20,-99.99,,,-99.99,VWS V14.01,2013-01-19 01:09:00,
2013-01-18 20:14:00,32.5,-4.1,28.82,North,-999,-999.0,-999.0,20,-99.99,,,-99.99,VWS V14.01,2013-01-19 01:14:00,
2013-01-18 20:20:00,32.5,-4.1,28.82,North,-999,-999.0,-999.0,20,-99.99,,,-99.99,VWS V14.01,2013-01-19 01:20:00,
2013-01-18 20:25:00,32.5,-4.1,28.82,North,-999,-999.0,-999.0,20,-99.99,,,-99.99,VWS V14.01,2013-01-19 01:25:00,
2013-01-18 20:30:00,32.5,-4.1,28.82,North,-999,-999.0,-999.0,20,-99.99,,,-99.99,VWS V14.01,2013-01-19 01:30:00,
2013-01-18 20:36:00,32.7,-3.9,28.82,North,-999,-999.0,-999.0,20,-99.99,,,-99.99,VWS V14.01,2013-01-19 01:36:00,
2013-01-18 20:41:00,32.7,-3.9,28.82,North,-999,-999.0,-999.0,20,-99.99,,,-99.99,VWS V14.01,2013-01-19 01:41:00,
2013-01-18 20:46:00,32.9,-3.8,28.82,North,-999,-999.0,-999.0,20,-99.99,,,-99.99,VWS V14.01,2013-01-19 01:46:00,
2013-01-18 20:51:00,33.1,-3.6,28.82,North,-999,-999.0,-999.0,20,-99.99,,,-99.99,VWS V14.01,2013-01-19 01:51:00,
2013-01-18 20:57:00,33.1,-3.6,28.82,North,-999,-999.0,-999.0,20,-99.99,,,-99.99,VWS V14.01,2013-01-19 01:57:00,
2013-01-18 21:02:00,33.1,-3.6,28.82,North,-999,-999.0,-999.0,20,-99.99,,,-99.99,VWS V14.01,2013-01-19 02:02:00,
2013-01-18 21:08:00,33.1,-3.6,28.82,North,-999,-999.0,-999.0,20,-99.99,,,-99.99,VWS V14.01,2013-01-19 02:08:00,
2013-01-18 21:13:00,33.1,-3.6,28.82,North,-999,-999.0,-999.0,20,-99.99,,,-99.99,VWS V14.01,2013-01-19 02:13:00,
2013-01-18 21:18:00,33.1,-3.6,28.82,North,-999,-999.0,-999.0,20,-99.99,,,-99.99,VWS V14.01,2013-01-19 02:18:00,
2013-01-18 21:24:00,32.9,-3.8,28.82,North,-999,-999.0,-999.0,20,-99.99,,,-99.99,VWS V14.01,2013-01-19 02:24:00,
2013-01-18 21:29:00,32.7,-3.9,28.82,North,-999,-999.0,-999.0,20,-99.99,,,-99.99,VWS V14.01,2013-01-19 02:29:00,
2013-01-18 21:34:00,32.7,-3.9,28.82,North,-999,-999.0,-999.0,20,-99.99,,,-99.99,VWS V14.01,2013-01-19 02:34:00,
2013-01-18 21:39:00,32.7,-3.9,28.82,North,-999,-999.0,-999.0,20,-99.99,,,-99.99,VWS V14.01,2013-01-19 02:39:00,
2013-01-18 21:45:00,32.5,-4.1,28.82,North,-999,-999.0,-999.0,20,-99.99,,,-99.99,VWS V14.01,2013-01-19 02:45:00,
2013-01-18 21:50:00,32.4,-4.2,28.82,North,-999,-999.0,-999.0,20,-99.99,,,-99.99,VWS V14.01,2013-01-19 02:50:00,
2013-01-18 21:56:00,32.2,-4.4,28.82,North,-999,-999.0,-999.0,20,-99.99,,,-99.99,VWS V14.01,2013-01-19 02:56:00,
2013-01-18 22:01:00,32.2,-4.4,28.82,North,-999,-999.0,-999.0,20,-99.99,,,-99.99,VWS V14.01,2013-01-19 03:01:00,
2013-01-18 22:06:00,32.2,-4.4,28.82,North,-999,-999.0,-999.0,20,-99.99,,,-99.99,VWS V14.01,2013-01-19 03:06:00,
2013-01-18 22:11:00,32.2,-4.4,28.82,North,-999,-999.0,-999.0,20,-99.99,,,-99.99,VWS V14.01,2013-01-19 03:11:00,
2013-01-18 22:16:00,32.2,-4.4,28.82,North,-999,-999.0,-999.0,20,-99.99,,,-99.99,VWS V14.01,2013-01-19 03:16:00,
2013-01-18 22:21:00,32.2,-4.4,28.82,North,-999,-999.0,-999.0,20,-99.99,,,-99.99,VWS V14.01,2013-01-19 03:21:00,
2013-01-18 22:27:00,32.2,-4.4,28.82,North,-999,-999.0,-999.0,20,-99.99,,,-99.99,VWS V14.01,2013-01-19 03:27:00,
2013-01-18 22:33:00,32.2,-4.4,28.79,North,-999,-999.0,-999.0,20,-99.99,,,-99.99,VWS V14.01,2013-01-19 03:33:00,
2013-01-18 22:39:00,31.8,-4.7,28.79,North,-999,-999.0,-999.0,20,-99.99,,,-99.99,VWS V14.01,2013-01-19 03:39:00,
2013-01-18 22:44:00,31.8,-4.7,28.79,North,-999,-999.0,-999.0,20,-99.99,,,-99.99,VWS V14.01,2013-01-19 03:44:00,
2013-01-18 22:49:00,31.8,-4.7,28.79,North,-999,-999.0,-999.0,20,-99.99,,,-99.99,VWS V14.01,2013-01-19 03:49:00,
2013-01-18 22:54:00,31.8,-4.7,28.79,North,-999,-999.0,-999.0,20,-99.99,,,-99.99,VWS V14.01,2013-01-19 03:54:00,
2013-01-18 23:00:00,31.8,-4.7,28.79,North,-999,-999.0,-999.0,20,-99.99,,,-99.99,VWS V14.01,2013-01-19 04:00:00,
2013-01-18 23:06:00,32.0,-4.5,28.79,North,-999,-999.0,-999.0,20,-99.99,,,-99.99,VWS V14.01,2013-01-19 04:06:00,
2013-01-18 23:11:00,32.2,-4.4,28.79,North,-999,-999.0,-999.0,20,-99.99,,,-99.99,VWS V14.01,2013-01-19 04:11:00,
2013-01-18 23:16:00,32.4,-4.2,28.79,North,-999,-999.0,-999.0,20,-99.99,,,-99.99,VWS V14.01,2013-01-19 04:16:00,
2013-01-18 23:22:00,32.4,-4.2,28.79,North,-999,-999.0,-999.0,20,-99.99,,,-99.99,VWS V14.01,2013-01-19 04:22:00,
2013-01-18 23:27:00,32.4,-4.2,28.79,North,-999,-999.0,-999.0,20,-99.99,,,-99.99,VWS V14.01,2013-01-19 04:27:00,
2013-01-18 23:32:00,32.5,-4.1,28.76,North,-999,-999.0,-999.0,20,-99.99,,,-99.99,VWS V14.01,2013-01-19 04:32:00,
2013-01-18 23:37:00,32.7,-3.9,28.76,North,-999,-999.0,-999.0,20,-99.99,,,-99.99,VWS V14.01,2013-01-19 04:37:00,
2013-01-18 23:42:00,32.7,-3.9,28.76,North,-999,-999.0,-999.0,20,-99.99,,,-99.99,VWS V14.01,2013-01-19 04:42:00,
2013-01-18 23:48:00,32.7,-3.9,28.76,North,-999,-999.0,-999.0,20,-99.99,,,-99.99,VWS V14.01,2013-01-19 04:48:00,
2013-01-18 23:53:00,32.5,-4.1,28.76,North,-999,-999.0,-999.0,20,-99.99,,,-99.99,VWS V14.01,2013-01-19 04:53:00,
2013-01-18 23:58:00,32.5,-4.1,28.76,North,-999,-999.0,-999.0,20,-99.99,,,-99.99,VWS V14.01,2013-01-19 04:58:00,